Flag for China Weather past 2 weeks in Kashgar, Xinjiang, China

Now
70 °F

Passing clouds.


Feels Like: 70 °F
Forecast: 62 / 80 °F
Wind: 8 mph from West

Location: Kashi Airport

Current Time: Aug 29, 2014 at 7:58:09 AM

Latest Report: Aug 29, 2014 at 7:00 AM


Visibility: N/A

Pressure: 30.04 "Hg

Humidity: 46%

Dew point: 48 °F

Location of KashgarLocation

Historic Weather in Kashgar — Graph

°F

Kashgar temperature yesterday

Maximum temperature yesterday: 86 °F (at 4:00 PM)
Minimum temperature yesterday: 66 °F (at 9:00 AM)
Average temperature yesterday: 77 °F

Past Weeks' High & Low Weather Summary

 TemperatureHumidityPressure
High93 °F (Aug 24, 4:00 PM)83% (Aug 16, 8:00 AM)30.09 "Hg (Aug 16, 8:00 AM)
Low61 °F (Aug 16, 8:00 AM)8% (Aug 24, 8:00 PM)29.74 "Hg (Aug 14, 7:00 PM)
Average78 °F28%29.93 "Hg
* Reported Aug 14 6:00 AM — Aug 29 6:00 AM, Kashgar, Weather by CustomWeather, © 2014

Note: Actual official high and low records may vary slightly from our data, if they occured in-between our weather recording intervals... More about our weather records

Advertising

Kashgar weather history for previous 24 hours

 ConditionsComfort  
Time TempWeatherWind HumidityBarometerVisibility
6:00 AM
Aug 29
70 °FPassing clouds.8 mph50%30.04 "HgN/A
5:00 AM68 °FPassing clouds.8 mph56%30.04 "HgN/A
4:00 AM70 °FClear.10 mph50%30.04 "Hg10 mi
3:00 AM72 °FClear.8 mph47%30.07 "Hg10 mi
2:00 AM75 °FClear.13 mph29%30.04 "Hg10 mi
1:00 AM73 °FClear.13 mph31%30.04 "Hg10 mi
12:00 AM75 °FPassing clouds.10 mph31%30.04 "HgN/A
11:00 PM
Aug 28
77 °FPassing clouds.22 mph28%30.01 "HgN/A
10:00 PM81 °FPassing clouds.10 mph24%30.01 "HgN/A
9:00 PM82 °FSunny.3 mph20%29.98 "Hg10 mi
8:00 PM84 °FPassing clouds.3 mph19%29.98 "HgN/A
7:00 PM86 °FSunny.8 mph22%29.98 "Hg10 mi
6:00 PM86 °FSunny.8 mph20%29.98 "Hg10 mi
5:00 PM86 °FPassing clouds.8 mph20%29.98 "HgN/A
4:00 PM86 °FPassing clouds.8 mph19%29.98 "HgN/A
3:00 PM84 °FSunny.8 mph20%30.01 "Hg10 mi
2:00 PM82 °FPassing clouds.8 mph25%30.01 "HgN/A
1:00 PM82 °FPassing clouds.8 mph25%30.04 "HgN/A
12:00 PM79 °FSunny.1 mph23%30.04 "Hg10 mi
11:00 AM77 °FSunny.8 mph22%30.01 "Hg10 mi
10:00 AM70 °FSunny.6 mph33%30.01 "Hg10 mi
9:00 AM66 °FSunny.6 mph43%29.98 "Hg10 mi
8:00 AM70 °FClear.8 mph31%29.98 "Hg10 mi
7:00 AM70 °FClear.8 mph31%29.95 "Hg10 mi
Weather by CustomWeather, © 2014

See weather overviewHow to use our weather pages